This demonstration page uses our WeatherBlox Daily Observations layout. Learn more.

Hourly Observations for July 12, 2018

Temp ( °F °C ) Dew Point ( °F °C ) Humidity (%) Winds ( mph kmh ) Pressure ( in mb ) Visibility ( mi km ) Precip ( " mm )
12:15 am 00:15 Clear 75 24 63 17 65 65 NNE 3 6 30.09 1019 10 16.09344 0 0
12:35 am 00:35 Clear 75 24 63 17 65 65 NNE 7 11 30.09 1019 10 16.09344 0 0
12:55 am 00:55 Clear 73 23 63 17 69 69 NNE 9 15 30.09 1019 10 16.09344 0 0
1:15 am 01:15 Clear 73 23 63 17 69 69 NNE 8 13 30.09 1019 10 16.09344 0 0
1:35 am 01:35 Clear 73 23 63 17 69 69 NNE 7 11 30.09 1019 10 16.09344 0 0
1:55 am 01:55 Clear 72 22 63 17 73 73 NNE 8 13 30.12 1020 10 16.09344 0 0
2:15 am 02:15 Clear 72 22 61 16 69 69 NNE 9 15 30.12 1020 10 16.09344 0 0
2:35 am 02:35 Clear 72 22 61 16 69 69 NNE 7 11 30.12 1020 10 16.09344 0 0
2:55 am 02:55 Clear 72 22 59 15 65 65 NNE 6 9 30.12 1020 10 16.09344 0 0
3:15 am 03:15 Clear 72 22 57 14 61 61 NE 6 9 30.12 1020 10 16.09344 0 0
3:35 am 03:35 Clear 70 21 57 14 64 64 NNE 9 15 30.12 1020 10 16.09344 0 0
3:55 am 03:55 Clear 70 21 55 13 60 60 NNE 6 9 30.12 1020 10 16.09344 0 0
4:15 am 04:15 Clear 70 21 55 13 60 60 NNE 8 13 30.12 1020 10 16.09344 0 0
4:35 am 04:35 Clear 70 21 55 13 60 60 NNE 8 13 30.12 1020 10 16.09344 0 0
4:55 am 04:55 Clear 70 21 55 13 60 60 N 8 13 30.15 1021 10 16.09344 0 0
5:15 am 05:15 Mostly Cloudy 70 21 54 12 57 57 NNE 7 11 30.15 1021 10 16.09344 0 0
5:35 am 05:35 Mostly Cloudy 70 21 54 12 57 57 NNE 7 11 30.15 1021 10 16.09344 0 0
5:55 am 05:55 Partly Cloudy 68 20 54 12 60 60 NNE 8 13 30.15 1021 10 16.09344 0 0
6:15 am 06:15 Sunny 68 20 54 12 60 60 NNE 9 15 30.15 1021 10 16.09344 0 0
6:35 am 06:35 Sunny 68 20 54 12 60 60 NNE 8 13 30.15 1021 10 16.09344 0 0
6:55 am 06:55 Sunny 68 20 54 12 60 60 NNE 9 15 30.15 1021 10 16.09344 0 0
7:15 am 07:15 Sunny 68 20 54 12 60 60 NNE 7 11 30.15 1021 10 16.09344 0 0
7:35 am 07:35 Sunny 70 21 54 12 57 57 NNE 7 11 30.15 1021 10 16.09344 0 0
7:55 am 07:55 Sunny 70 21 55 13 60 60 NNE 7 11 30.15 1021 10 16.09344 0 0
8:15 am 08:15 Sunny 72 22 54 12 53 53 NNE 9 15 30.15 1021 10 16.09344 0 0
8:35 am 08:35 Sunny 72 22 54 12 53 53 NNE 8 13 30.18 1022 10 16.09344 0 0
8:55 am 08:55 Sunny 72 22 55 13 57 57 NE 7 11 30.18 1022 10 16.09344 0 0
9:15 am 09:15 Sunny 73 23 55 13 53 53 NNE 8 13 30.18 1022 10 16.09344 0 0
9:35 am 09:35 Sunny 75 24 55 13 50 50 NNE 8 13 30.18 1022 10 16.09344 0 0
9:55 am 09:55 Sunny 75 24 55 13 50 50 N 8 13 30.18 1022 10 16.09344 0 0
10:15 am 10:15 Sunny 77 25 55 13 47 47 NNE 5 7 30.18 1022 10 16.09344 0 0
10:35 am 10:35 Sunny 79 26 55 13 45 45 N 8 13 30.21 1023 10 16.09344 0 0
10:55 am 10:55 Sunny 79 26 55 13 45 45 N 3 6 30.18 1022 10 16.09344 0 0
11:15 am 11:15 Sunny 81 27 59 15 48 48 NNE 3 6 30.21 1023 10 16.09344 0 0
11:35 am 11:35 Sunny 81 27 59 15 48 48 NNE 7 11 30.21 1023 10 16.09344 0 0
11:55 am 11:55 Sunny 82 28 59 15 45 45 NNE 6 9 30.21 1023 10 16.09344 0 0
12:15 pm 12:15 Sunny 82 28 59 15 45 45 NE 10 17 30.21 1023 10 16.09344 0 0
12:35 pm 12:35 Sunny 82 28 59 15 45 45 NE 8 13 30.21 1023 10 16.09344 0 0
12:55 pm 12:55 Sunny 86 30 57 14 38 38 NE 6 9 30.21 1023 10 16.09344 0 0
1:15 pm 13:15 Sunny 86 30 57 14 38 38 NE 6 9 30.21 1023 10 16.09344 0 0
1:35 pm 13:35 Sunny 86 30 57 14 38 38 N 3 6 30.18 1022 10 16.09344 0 0
1:55 pm 13:55 Sunny 86 30 57 14 38 38 NE 8 13 30.18 1022 10 16.09344 0 0
2:15 pm 14:15 Sunny 86 30 57 14 38 38 NNE 9 15 30.18 1022 10 16.09344 0 0
2:35 pm 14:35 Partly Cloudy 86 30 59 15 40 40 NNE 8 13 30.18 1022 10 16.09344 0 0
2:55 pm 14:55 Mostly Cloudy 86 30 59 15 40 40 Calm 30.18 1022 10 16.09344 0 0
3:15 pm 15:15 Mostly Cloudy 88 31 59 15 38 38 ENE 8 13 30.18 1022 10 16.09344 0 0
3:35 pm 15:35 Mostly Cloudy 86 30 59 15 40 40 NW 6 9 30.18 1022 10 16.09344 0 0
3:55 pm 15:55 Mostly Cloudy 86 30 59 15 40 40 Calm 30.15 1021 10 16.09344 0 0
4:15 pm 16:15 Partly Cloudy 86 30 59 15 40 40 NNW 8 13 30.18 1022 10 16.09344 0 0
4:35 pm 16:35 Partly Cloudy 88 31 57 14 35 35 NE 3 6 30.15 1021 10 16.09344 0 0
4:55 pm 16:55 Mostly Cloudy 88 31 57 14 35 35 N 10 17 30.15 1021 10 16.09344 0 0
5:15 pm 17:15 Partly Cloudy 86 30 57 14 38 38 N 8 13 30.15 1021 10 16.09344 0 0
5:35 pm 17:35 Sunny 86 30 57 14 38 38 NNW 8 13 30.15 1021 10 16.09344 0 0
5:55 pm 17:55 Sunny 86 30 59 15 40 40 ENE 8 13 30.15 1021 10 16.09344 0 0
6:15 pm 18:15 Sunny 86 30 57 14 38 38 N 7 11 30.15 1021 10 16.09344 0 0
6:35 pm 18:35 Sunny 86 30 57 14 38 38 NNE 6 9 30.15 1021 10 16.09344 0 0
6:55 pm 18:55 Sunny 86 30 57 14 38 38 Calm 30.15 1021 10 16.09344 0 0
7:15 pm 19:15 Sunny 86 30 57 14 38 38 NNE 5 7 30.15 1021 10 16.09344 0 0
7:35 pm 19:35 Sunny 86 30 57 14 38 38 NNE 5 7 30.15 1021 10 16.09344 0 0
7:55 pm 19:55 Sunny 84 29 59 15 43 43 NE 3 6 30.15 1021 10 16.09344 0 0
8:15 pm 20:15 Sunny 82 28 59 15 45 45 Calm 30.15 1021 10 16.09344 0 0
8:35 pm 20:35 Sunny 82 28 61 16 48 48 NE 5 7 30.18 1022 10 16.09344 0 0
8:55 pm 20:55 Clear 81 27 61 16 51 51 NE 5 7 30.18 1022 10 16.09344 0 0
9:15 pm 21:15 Mostly Cloudy 81 27 61 16 51 51 ENE 3 6 30.18 1022 10 16.09344 0 0
9:35 pm 21:35 Mostly Cloudy 79 26 63 17 58 58 SSE 5 7 30.21 1023 10 16.09344 0 0
9:55 pm 21:55 Partly Cloudy 79 26 64 18 61 61 SSE 5 7 30.21 1023 10 16.09344 0 0
10:15 pm 22:15 Clear 79 26 66 19 65 65 SSE 6 9 30.21 1023 10 16.09344 0 0
10:35 pm 22:35 Clear 79 26 66 19 65 65 SSE 8 13 30.24 1024 10 16.09344 0 0
10:55 pm 22:55 Clear 79 26 68 20 70 70 SSE 6 9 30.24 1024 10 16.09344 0 0
11:15 pm 23:15 Clear 77 25 68 20 74 74 ESE 5 7 30.21 1023 10 16.09344 0 0
11:35 pm 23:35 Clear 77 25 68 20 74 74 SE 6 9 30.21 1023 10 16.09344 0 0
11:55 pm 23:55 Clear 77 25 68 20 74 74 SE 6 9 30.24 1024 10 16.09344 0 0

Powered by AerisWeather